Danville Regional Airport Danville US
ICAO: KDAN
IATA: DAN
Category: Medium
Scheduled Services: No

Elevation: 571 ft
TransAlt. 18000 ft.

Airport Communications:
ASOS:128.125
WASHINGTON CNTR:124.05
LEESBURG RDO:122.2
CTAF/UNICOM:123.05

KDAN Zoom In..

If you have problems with the map follow the link
https://www.worldairports.se/pages/airport.php?
ICAO=KDAN

Runways:

(A) RW 02 length 6500 ft width 150 ft
ILS 110.70 / hdg 25

(B) RW 13 length 4020 ft width 100 ft
---- / hdg 134

(C) RW 20 length 6500 ft width 150 ft
---- / hdg 205

(D) RW 31 length 4020 ft width 100 ft
---- / hdg 314

Location; KDAN
Day. 19 / Time. 13.53 Zulu
* Altimeter: 30.16
* Temperature: 04° c. 39.2°f.
* Wind from: 000° Speed 00 kn.
Dewpoint: 04° c.
Visibility: 7 Statute Miles.
Clouds: Clear (automated report).

KDAN 191353Z AUTO 00000KT 7SM CLR 04/04 A3016 RMK AO2 SLP209 T00390039


Wind - Calm.

 
 
jpsmedia.com for Web Design worldairports.se 2018   terms of use